This demonstration page uses our WeatherBlox Daily Observations layout. Learn more.

40.92945, -100.16068

Hourly Observations for June 9, 2017

Temp ( °F °C ) Dew Point ( °F °C ) Humidity (%) Winds ( mph kmh ) Pressure ( in mb ) Visibility ( mi km ) Precip ( " mm )
12:15 am 00:15 Clear 70 20.9 60 15.4 71 71 S 9 15 29.8 1009 10 16.0934 0 0
12:35 am 00:35 Clear 69 20.5 60 15.5 73 73 S 10 17 29.8 1009 10 16.0934 0 0
12:55 am 00:55 Clear 69 20.3 60 15.5 74 74 S 12 19 29.8 1009 10 16.0934 0 0
1:15 am 01:15 Clear 68 19.8 60 15.6 77 77 SSW 10 17 29.8 1009 10 16.0934 0 0
1:35 am 01:35 Clear 67 19.5 60 15.7 79 79 SSW 8 13 29.8 1009 10 16.0934 0 0
1:55 am 01:55 Clear 66 19.1 60 15.7 81 81 S 8 13 29.77 1008 10 16.0934 0 0
2:15 am 02:15 Clear 66 19.1 60 15.7 81 81 S 8 13 29.77 1008 10 16.0934 0 0
2:35 am 02:35 Clear 66 18.9 60 15.6 81 81 S 7 11 29.77 1008 10 16.0934 0 0
2:55 am 02:55 Clear 65 18.5 60 15.6 83 83 S 8 13 29.77 1008 10 16.0934 0 0
3:15 am 03:15 Clear 65 18.5 60 15.5 83 83 SSW 8 13 29.77 1008 10 16.0934 0 0
3:35 am 03:35 Clear 65 18.3 60 15.5 84 84 S 8 13 29.8 1009 10 16.0934 0 0
3:55 am 03:55 Clear 64 18 60 15.4 85 85 SSW 7 11 29.8 1009 10 16.0934 0 0
4:15 am 04:15 Clear 64 17.6 59 15.2 86 86 S 7 11 29.8 1009 10 16.0934 0 0
4:35 am 04:35 Clear 63 17.4 59 15.2 87 87 S 6 9 29.77 1008 10 16.0934 0 0
4:55 am 04:55 Clear 63 17 59 15.1 89 89 S 5 7 29.8 1009 10 16.0934 0 0
5:15 am 05:15 Clear 62 16.7 59 15 90 90 S 5 7 29.77 1008 10 16.0934 0 0
5:35 am 05:35 Clear 62 16.7 59 15 90 90 SSE 6 9 29.77 1008 10 16.0934 0 0
5:55 am 05:55 Clear 62 16.7 59 15 90 90 SSE 5 7 29.77 1008 10 16.0934 0 0
6:15 am 06:15 Sunny 62 16.7 59 14.9 89 89 SSE 6 9 29.8 1009 10 16.0934 0 0
6:35 am 06:35 Sunny 62 16.7 59 14.9 89 89 S 6 9 29.8 1009 10 16.0934 0 0
6:55 am 06:55 Sunny 63 17 59 15.1 89 89 S 6 9 29.8 1009 10 16.0934 0 0
7:15 am 07:15 Sunny 64 17.5 60 15.3 87 87 SSE 6 9 29.8 1009 10 16.0934 0 0
7:35 am 07:35 Sunny 65 18.3 60 15.6 84 84 SSE 7 11 29.8 1009 10 16.0934 0 0
7:55 am 07:55 Sunny 66 19 60 15.8 82 82 S 7 11 29.77 1008 10 16.0934 0 0
8:15 am 08:15 Sunny 67 19.7 60 15.5 77 77 S 9 15 29.77 1008 10 16.0934 0 0
8:35 am 08:35 Sunny 69 20.4 61 16 76 76 S 8 13 29.77 1008 10 16.0934 0 0
8:55 am 08:55 Sunny 71 21.4 61 16.1 72 72 SSW 10 17 29.77 1008 10 16.0934 0 0
9:15 am 09:15 Sunny 71 21.8 61 16.1 70 70 SSW 13 20 29.77 1008 10 16.0934 0 0
9:35 am 09:35 Sunny 72 22.4 62 16.7 70 70 SW 13 20 29.74 1007 10 16.0934 0 0
9:55 am 09:55 Sunny 73 22.8 62 16.7 69 69 S 13 20 29.71 1006 10 16.0934 0 0
10:15 am 10:15 Sunny 74 23.5 62 16.9 67 67 S 14 22 29.71 1006 10 16.0934 0 0
10:35 am 10:35 Sunny 76 24.2 63 17.1 65 65 S 14 22 29.71 1006 10 16.0934 0 0
10:55 am 10:55 Sunny 77 24.9 63 17.3 63 63 S 12 19 29.71 1006 10 16.0934 0 0
11:15 am 11:15 Sunny 78 25.5 63 17.3 61 61 S 15 24 29.68 1005 10 16.0934 0 0
11:35 am 11:35 Sunny 79 26.1 63 17.4 59 59 SSW 14 22 29.65 1004 10 16.0934 0 0
11:55 am 11:55 Sunny 80 26.7 64 17.9 59 59 S 17 28 29.65 1004 10 16.0934 0 0
12:15 pm 12:15 Sunny 82 27.6 65 18.2 57 57 S 17 28 29.65 1004 10 16.0934 0 0
12:35 pm 12:35 Sunny 82 28 64 18 55 55 SSW 20 31 29.65 1004 10 16.0934 0 0
12:55 pm 12:55 Sunny 83 28.5 63 17.3 51 51 S 21 33 29.62 1003 10 16.0934 0 0
1:15 pm 13:15 Sunny 84 29 64 17.5 50 50 SSW 17 28 29.62 1003 10 16.0934 0 0
1:35 pm 13:35 Sunny 85 29.2 63 17.4 49 49 S 20 31 29.59 1002 10 16.0934 0 0
1:55 pm 13:55 Sunny 85 29.5 62 16.7 46 46 SSW 23 37 29.59 1002 10 16.0934 0 0
2:15 pm 14:15 Sunny 86 29.9 62 16.7 45 45 S 23 37 29.59 1002 10 16.0934 0 0
2:35 pm 14:35 Sunny 86 30.1 63 17.1 46 46 S 18 30 29.59 1002 10 16.0934 0 0
2:55 pm 14:55 Partly Cloudy 87 30.5 63 17.4 45 45 SSW 22 35 29.56 1001 10 16.0934 0 0
3:15 pm 15:15 Sunny 87 30.6 62 16.5 43 43 S 21 33 29.56 1001 10 16.0934 0 0
3:35 pm 15:35 Sunny 87 30.6 62 16.7 43 43 S 20 31 29.56 1001 10 16.0934 0 0
3:55 pm 15:55 Sunny 87 30.7 62 16.4 42 42 SSW 20 31 29.56 1001 10 16.0934 0 0
4:15 pm 16:15 Sunny 88 31 62 16.8 42 42 S 17 28 29.56 1001 10 16.0934 0 0
4:35 pm 16:35 Sunny 88 31 62 16.7 42 42 S 22 35 29.53 1000 10 16.0934 0 0
4:55 pm 16:55 Sunny 88 31 62 16.4 41 41 SSW 21 33 29.53 1000 10 16.0934 0 0
5:15 pm 17:15 Sunny 88 31 61 16 40 40 S 23 37 29.53 1000 10 16.0934 0 0
5:35 pm 17:35 Sunny 88 31.1 62 16.8 42 42 S 24 39 29.53 1000 10 16.0934 0 0
5:55 pm 17:55 Sunny 88 31 62 16.5 42 42 SSW 22 35 29.53 1000 10 16.0934 0 0
6:15 pm 18:15 Sunny 87 30.6 61 16.1 42 42 S 22 35 29.53 1000 10 16.0934 0 0
6:35 pm 18:35 Sunny 87 30.6 62 16.4 42 42 S 21 33 29.53 1000 10 16.0934 0 0
6:55 pm 18:55 Sunny 86 30 61 16.2 43 43 S 21 33 29.53 1000 10 16.0934 0 0
7:15 pm 19:15 Sunny 85 29.5 61 16.2 45 45 S 17 28 29.53 1000 10 16.0934 0 0
7:35 pm 19:35 Sunny 84 29 62 16.5 47 47 S 17 28 29.5 999 10 16.0934 0 0
7:55 pm 19:55 Sunny 84 28.7 62 16.6 48 48 S 16 26 29.53 1000 10 16.0934 0 0
8:15 pm 20:15 Sunny 83 28.5 62 16.5 48 48 S 16 26 29.5 999 10 16.0934 0 0
8:35 pm 20:35 Sunny 83 28.1 62 16.5 49 49 S 17 28 29.5 999 10 16.0934 0 0
8:55 pm 20:55 Sunny 82 27.9 62 16.4 50 50 S 16 26 29.5 999 10 16.0934 0 0
9:15 pm 21:15 Clear 81 27.2 61 16.2 51 51 S 16 26 29.5 999 10 16.0934 0 0
9:35 pm 21:35 Clear 81 27 61 16.2 52 52 S 17 28 29.53 1000 10 16.0934 0 0
9:55 pm 21:55 Clear 80 26.7 61 16.1 52 52 S 17 28 29.53 1000 10 16.0934 0 0
10:15 pm 22:15 Clear 79 26.2 62 16.4 55 55 S 16 26 29.56 1001 10 16.0934 0 0
10:35 pm 22:35 Clear 79 26 62 16.6 56 56 S 17 28 29.56 1001 10 16.0934 0 0
10:55 pm 22:55 Clear 78 25.6 62 16.8 58 58 S 18 30 29.56 1001 10 16.0934 0 0
11:15 pm 23:15 Clear 78 25.3 62 16.9 60 60 S 18 30 29.53 1000 10 16.0934 0 0
11:35 pm 23:35 Clear 77 25 63 17.2 62 62 S 21 33 29.53 1000 10 16.0934 0 0
11:55 pm 23:55 Clear 77 25 63 17.2 62 62 S 21 33 29.53 1000 10 16.0934 0 0

Powered by AerisWeather